Flag for Germany Weather past 2 weeks in Bretten, Baden-Württemberg, Germany

57 °F


Feels Like: 57 °F
Forecast: 44 / 66 °F
Wind: 3 mph from North

Location: Baden Wurttemberg - Neuostheim

Current Time: Oct 4, 2015 at 7:57:19 PM

Latest Report: Oct 4, 2015 at 7:20 PM

Visibility: 10 mi

Pressure: 30.04 "Hg

Humidity: 88%

Dew point: 54 °F

Location of BrettenLocation

Historic Weather in Bretten — Graph


Bretten temperature yesterday

Maximum temperature yesterday: 70 °F (at 5:20 PM)
Minimum temperature yesterday: 45 °F (at 7:20 AM)
Average temperature yesterday: 60 °F

Past Weeks' High & Low Weather Summary

High70 °F (Oct 2, 3:20 PM)100% (Sep 21, 6:50 AM)30.57 "Hg (Sep 21, 6:50 AM)
Low43 °F (Oct 2, 6:20 AM)34% (Sep 29, 12:50 PM)29.62 "Hg (Sep 22, 4:50 PM)
Average59 °F64%30.18 "Hg
* Reported Sep 19 6:20 PM — Oct 4 6:20 PM, Bretten, Weather by CustomWeather, © 2015

Note: Actual official high and low records may vary slightly from our data, if they occured in-between our weather recording intervals... More about our weather records


Bretten weather history for previous 24 hours

Time TempWeatherWind HumidityBarometerVisibility
6:20 PM
Sun, Oct 4
59 °FSunny.5 mph88%30.04 "Hg10 mi
5:50 PM59 °FScattered clouds.5 mph88%30.04 "HgN/A
5:20 PM59 °FPartly sunny.7 mph88%30.04 "HgN/A
4:50 PM59 °FPartly sunny.6 mph88%30.07 "HgN/A
4:20 PM59 °FPartly sunny.5 mph94%30.07 "HgN/A
3:50 PM59 °FPartly sunny.6 mph94%30.07 "HgN/A
3:20 PM59 °FOvercast.5 mph88%30.07 "HgN/A
2:50 PM59 °FPartly sunny.5 mph88%30.07 "HgN/A
2:20 PM59 °FMore clouds than sun.6 mph88%30.07 "HgN/A
1:50 PM59 °FCloudy.5 mph94%30.09 "HgN/A
1:20 PM57 °FLight rain. Mostly cloudy.5 mph94%30.09 "HgN/A
12:50 PM57 °FLight rain. Mostly cloudy.5 mph100%30.09 "HgN/A
12:20 PM57 °FLight rain. Mostly cloudy.5 mph100%30.09 "HgN/A
11:50 AM57 °FLight rain. Mostly cloudy.5 mph100%30.09 "Hg5 mi
11:20 AM55 °FLight rain. More clouds than sun.3 mph100%30.09 "Hg4 mi
10:50 AM55 °FLight rain. Fog.3 mph100%30.09 "Hg3 mi
10:20 AM55 °FLight rain. Fog.3 mph100%30.09 "Hg2 mi
9:50 AM55 °FLight rain. Fog.3 mph94%30.07 "Hg2 mi
9:20 AM54 °FLight rain. Fog.3 mph100%30.07 "Hg2 mi
8:50 AM54 °FOvercast.3 mph100%30.07 "Hg3 mi
8:20 AM54 °FLight rain. Passing clouds.5 mph100%30.07 "Hg3 mi
7:20 AM54 °FLight rain. Passing clouds.7 mph94%30.04 "Hg5 mi
8:50 PM
Sat, Oct 3
57 °FClear.2 mph72%29.95 "Hg10 mi
8:20 PM59 °FCool.2 mph72%29.98 "HgN/A
7:50 PM59 °FSunny.No wind72%29.98 "Hg10 mi
7:20 PM61 °FSunny.No wind63%29.95 "Hg10 mi
Weather by CustomWeather, © 2015

See weather overviewHow to use our weather pages